• In Uzbekistan
  • List of Countries
  • For 7 days
  • Water Temperature
  • Weather Map
  • Weather Widgets
  • user-avatar
    Login

    Hourly Weather Río Gallegos

    Today, 20 February, Thursday

    Time Temperature Precipitation Wind Pressure Humidity
    00:00 +4°C° 0 mm 11 mps 765 mmHg 61%
    01:00 +4°C° 0 mm 11 mps 765 mmHg 62%
    02:00 +5°C° 0 mm 9 mps 766 mmHg 64%
    03:00 +5°C° 0 mm 8 mps 766 mmHg 66%
    04:00 +4°C° 0 mm 7 mps 767 mmHg 68%
    05:00 +5°C° 0 mm 7 mps 767 mmHg 66%
    06:00 +6°C° 0 mm 7 mps 767 mmHg 64%
    07:00 +6°C° 0 mm 7 mps 768 mmHg 61%
    08:00 +9°C° 0 mm 6 mps 768 mmHg 56%
    09:00 +10°C° 0 mm 6 mps 768 mmHg 50%
    10:00 +13°C° 0 mm 5 mps 768 mmHg 44%
    11:00 +14°C° 0 mm 4 mps 768 mmHg 42%
    12:00 +16°C° 0 mm 3 mps 768 mmHg 39%
    13:00 +17°C° 0 mm 3 mps 768 mmHg 37%
    14:00 +17°C° 0 mm 3 mps 768 mmHg 36%
    15:00 +18°C° 0 mm 3 mps 767 mmHg 35%
    16:00 +18°C° 0 mm 4 mps 767 mmHg 34%
    17:00 +17°C° 0 mm 4 mps 767 mmHg 39%
    18:00 +15°C° 0 mm 4 mps 767 mmHg 44%
    19:00 +14°C° 0 mm 3 mps 768 mmHg 49%
    20:00 +14°C° 0 mm 3 mps 767 mmHg 50%
    21:00 +14°C° 0 mm 4 mps 767 mmHg 51%
    22:00 +14°C° 0 mm 4 mps 767 mmHg 53%
    23:00 +14°C° 0 mm 4 mps 767 mmHg 55%

    Tomorrow, 21 February, Friday

    Time Temperature Precipitation Wind Pressure Humidity
    00:00 +14°C° 0 mm 4 mps 767 mmHg 57%
    01:00 +13°C° 0 mm 4 mps 767 mmHg 59%
    08:00 +16°C° 0 mm 5 mps 766 mmHg 57%
    09:00 +19°C° 0 mm 5 mps 766 mmHg 52%
    10:00 +21°C° 0 mm 5 mps 765 mmHg 46%
    11:00 +23°C° 0 mm 5 mps 765 mmHg 43%
    12:00 +25°C° 0 mm 5 mps 764 mmHg 40%
    13:00 +27°C° 0 mm 5 mps 764 mmHg 37%
    14:00 +27°C° 0 mm 5 mps 764 mmHg 37%
    15:00 +27°C° 0 mm 4 mps 763 mmHg 36%
    16:00 +27°C° 0 mm 4 mps 763 mmHg 36%
    17:00 +25°C° 0 mm 3 mps 763 mmHg 40%
    18:00 +24°C° 0 mm 3 mps 762 mmHg 44%
    19:00 +22°C° 0 mm 3 mps 762 mmHg 48%
    20:00 +21°C° 0 mm 3 mps 762 mmHg 48%
    21:00 +20°C° 0 mm 3 mps 761 mmHg 48%
    22:00 +19°C° 0 mm 3 mps 761 mmHg 48%
    23:00 +19°C° 0 mm 3 mps 761 mmHg 48%

    Day after tomorrow, 22 February, Saturday

    Time Temperature Precipitation Wind Pressure Humidity
    00:00 +18°C° 0 mm 2 mps 760 mmHg 49%
    01:00 +18°C° 0 mm 2 mps 759 mmHg 49%
    02:00 +17°C° 0 mm 3 mps 759 mmHg 50%
    03:00 +17°C° 0 mm 3 mps 758 mmHg 51%
    04:00 +16°C° 0 mm 3 mps 758 mmHg 53%
    05:00 +17°C° 0 mm 3 mps 757 mmHg 52%
    06:00 +17°C° 0 mm 2 mps 757 mmHg 51%
    07:00 +18°C° 0 mm 2 mps 756 mmHg 50%
    08:00 +19°C° 0 mm 2 mps 755 mmHg 46%
    09:00 +20°C° 0 mm 2 mps 755 mmHg 42%
    10:00 +23°C° 0 mm 2 mps 754 mmHg 38%
    11:00 +24°C° 0 mm 2 mps 753 mmHg 35%
    12:00 +25°C° 0 mm 2 mps 752 mmHg 33%
    13:00 +26°C° 0 mm 2 mps 751 mmHg 31%
    14:00 +26°C° 0 mm 2 mps 750 mmHg 31%
    15:00 +26°C° 0 mm 3 mps 750 mmHg 32%
    16:00 +26°C° 0 mm 3 mps 749 mmHg 32%
    17:00 +25°C° 0 mm 4 mps 749 mmHg 36%
    18:00 +23°C° 0 mm 5 mps 748 mmHg 41%
    19:00 +21°C° 0 mm 5 mps 748 mmHg 45%
    20:00 +20°C° 0 mm 7 mps 748 mmHg 46%
    21:00 +19°C° 0 mm 10 mps 748 mmHg 47%
    22:00 +18°C° 0 mm 12 mps 749 mmHg 48%
    23:00 +15°C° 0 mm 14 mps 749 mmHg 49%

    23 February, Sunday

    Time Temperature Precipitation Wind Pressure Humidity
    00:00 +13°C° 0 mm 15 mps 749 mmHg 50%
    01:00 +10°C° 0 mm 17 mps 749 mmHg 51%
    02:00 +10°C° 0 mm 16 mps 749 mmHg 53%
    03:00 +9°C° 0 mm 15 mps 749 mmHg 55%
    04:00 +9°C° 0 mm 14 mps 750 mmHg 56%
    05:00 +10°C° 0 mm 14 mps 749 mmHg 55%
    06:00 +10°C° 0 mm 14 mps 749 mmHg 53%
    07:00 +12°C° 0 mm 14 mps 749 mmHg 52%
    08:00 +13°C° 0 mm 13 mps 749 mmHg 47%
    09:00 +14°C° 0 mm 12 mps 748 mmHg 43%
    10:00 +17°C° 0 mm 11 mps 748 mmHg 39%
    11:00 +17°C° 0 mm 12 mps 747 mmHg 39%
    12:00 +17°C° 0 mm 12 mps 747 mmHg 39%
    13:00 +17°C° 0 mm 12 mps 746 mmHg 39%
    14:00 +17°C° 0 mm 10 mps 745 mmHg 40%
    15:00 +17°C° 0 mm 8 mps 744 mmHg 40%
    16:00 +17°C° 0 mm 7 mps 744 mmHg 41%
    17:00 +16°C° 0 mm 8 mps 743 mmHg 41%
    18:00 +14°C° 0 mm 10 mps 743 mmHg 42%
    19:00 +14°C° 0 mm 12 mps 743 mmHg 43%
    20:00 +12°C° 0.4 mm 13 mps 743 mmHg 46%
    21:00 +9°C° 0.4 mm 14 mps 743 mmHg 49%
    22:00 +6°C° 0.4 mm 15 mps 743 mmHg 52%
    23:00 +7°C° 0 mm 13 mps 743 mmHg 57%

    24 February, Monday

    Time Temperature Precipitation Wind Pressure Humidity
    00:00 +5°C° 0 mm 12 mps 743 mmHg 61%
    01:00 +5°C° 0 mm 10 mps 743 mmHg 65%
    02:00 +5°C° 0 mm 10 mps 743 mmHg 66%
    03:00 +5°C° 0 mm 10 mps 742 mmHg 67%
    04:00 +5°C° 0 mm 10 mps 742 mmHg 68%
    05:00 +4°C° 0 mm 11 mps 742 mmHg 66%
    06:00 +5°C° 0 mm 13 mps 742 mmHg 65%
    07:00 +5°C° 0 mm 14 mps 741 mmHg 63%
    08:00 +5°C° 0 mm 14 mps 741 mmHg 62%
    09:00 +6°C° 0 mm 15 mps 741 mmHg 62%
    10:00 +6°C° 0 mm 15 mps 741 mmHg 61%
    11:00 +6°C° 0 mm 15 mps 740 mmHg 59%
    12:00 +7°C° 0 mm 16 mps 740 mmHg 57%
    13:00 +7°C° 0 mm 17 mps 740 mmHg 54%
    14:00 +7°C° 0 mm 17 mps 740 mmHg 52%
    15:00 +9°C° 0 mm 17 mps 740 mmHg 50%
    16:00 +9°C° 0 mm 17 mps 740 mmHg 48%
    17:00 +7°C° 0 mm 17 mps 740 mmHg 53%
    18:00 +6°C° 0 mm 17 mps 740 mmHg 57%
    19:00 +5°C° 0 mm 17 mps 740 mmHg 62%
    20:00 +5°C° 0 mm 17 mps 741 mmHg 64%
    21:00 +5°C° 0 mm 18 mps 741 mmHg 67%
    22:00 +3°C° 0 mm 18 mps 742 mmHg 70%
    23:00 +3°C° 0.1 mm 18 mps 742 mmHg 69%

    25 February, Tuesday

    Time Temperature Precipitation Wind Pressure Humidity
    00:00 +3°C° 0.1 mm 19 mps 742 mmHg 68%
    01:00 +3°C° 0.1 mm 19 mps 742 mmHg 67%
    02:00 +3°C° 0 mm 19 mps 743 mmHg 67%
    03:00 +3°C° 0 mm 19 mps 744 mmHg 67%
    04:00 +3°C° 0 mm 19 mps 745 mmHg 67%
    05:00 +3°C° 0 mm 18 mps 746 mmHg 66%
    06:00 +5°C° 0 mm 18 mps 747 mmHg 65%
    07:00 +5°C° 0 mm 18 mps 748 mmHg 65%
    08:00 +5°C° 0 mm 18 mps 749 mmHg 61%
    09:00 +6°C° 0 mm 18 mps 750 mmHg 58%
    10:00 +7°C° 0 mm 18 mps 751 mmHg 54%
    11:00 +7°C° 0 mm 17 mps 751 mmHg 52%
    12:00 +7°C° 0 mm 17 mps 752 mmHg 49%
    13:00 +7°C° 0 mm 16 mps 753 mmHg 46%
    14:00 +9°C° 0 mm 16 mps 753 mmHg 45%
    15:00 +9°C° 0 mm 16 mps 754 mmHg 44%
    16:00 +9°C° 0 mm 16 mps 754 mmHg 44%
    17:00 +8°C° 0 mm 15 mps 755 mmHg 48%
    18:00 +8°C° 0 mm 13 mps 756 mmHg 52%
    19:00 +7°C° 0 mm 12 mps 757 mmHg 56%
    20:00 +7°C° 0 mm 11 mps 757 mmHg 59%
    21:00 +7°C° 0 mm 10 mps 758 mmHg 63%
    22:00 +7°C° 0 mm 9 mps 758 mmHg 67%
    23:00 +8°C° 0 mm 9 mps 758 mmHg 68%
    Show more